owner,sensor,date,latitude,longitude,vertical_datum,sea_water_practical_salinity,qcFlag 
ENP,ioos.station.NOAA.NDBC:BDVF1:1,2019-04-01T00:00:00Z,25.4780,-80.9890,1.5,9.15,1111122 
ENP,ioos.station.NOAA.NDBC:BDVF1:1,2019-04-01T01:00:00Z,25.4780,-80.9890,1.5,9.02,1111122 
ENP,ioos.station.NOAA.NDBC:BDVF1:1,2019-04-01T02:00:00Z,25.4780,-80.9890,1.5,9.02,1111122 
ENP,ioos.station.NOAA.NDBC:BDVF1:1,2019-04-01T03:00:00Z,25.4780,-80.9890,1.5,9.1,11111222 
ENP,ioos.station.NOAA.NDBC:BDVF1:1,2019-04-01T04:00:00Z,25.4780,-80.9890,1.5,9.08,1111122 
ENP,ioos.station.NOAA.NDBC:BDVF1:1,2019-04-01T05:00:00Z,25.4780,-80.9890,1.5,9.2,11111222 
ENP,ioos.station.NOAA.NDBC:BDVF1:1,2019-04-01T06:00:00Z,25.4780,-80.9890,1.5,9.21,1111122 
ENP,ioos.station.NOAA.NDBC:BDVF1:1,2019-04-01T07:00:00Z,25.4780,-80.9890,1.5,9.4,1111122 
ENP,ioos.station.NOAA.NDBC:BDVF1:1,2019-04-01T08:00:00Z,25.4780,-80.9890,1.5,9.84,1111122 
ENP,ioos.station.NOAA.NDBC:BDVF1:1,2019-04-01T09:00:00Z,25.4780,-80.9890,1.5,10.16,1111122 
ENP,ioos.station.NOAA.NDBC:BDVF1:1,2019-04-01T10:00:00Z,25.4780,-80.9890,1.5,10.55,1111122 
ENP,ioos.station.NOAA.NDBC:BDVF1:1,2019-04-01T11:00:00Z,25.4780,-80.9890,1.5,10.94,1111122 
ENP,ioos.station.NOAA.NDBC:BDVF1:1,2019-04-01T12:00:00Z,25.4780,-80.9890,1.5,11.06,1111122 
ENP,ioos.station.NOAA.NDBC:BDVF1:1,2019-04-01T13:00:00Z,25.4780,-80.9890,1.5,11.13,1111122 
ENP,ioos.station.NOAA.NDBC:BDVF1:1,2019-04-01T14:00:00Z,25.4780,-80.9890,1.5,11.19,1111122 
ENP,ioos.station.NOAA.NDBC:BDVF1:1,2019-04-01T15:00:00Z,25.4780,-80.9890,1.5,11.13,1111122 
ENP,ioos.station.NOAA.NDBC:BDVF1:1,2019-04-01T16:00:00Z,25.4780,-80.9890,1.5,10.23,1111122 
ENP,ioos.station.NOAA.NDBC:BDVF1:1,2019-04-01T17:00:00Z,25.4780,-80.9890,1.5,10.16,1111122 
ENP,ioos.station.NOAA.NDBC:BDVF1:1,2019-04-01T18:00:00Z,25.4780,-80.9890,1.5,10.48,1111122 
ENP,ioos.station.NOAA.NDBC:BDVF1:1,2019-04-01T19:00:00Z,25.4780,-80.9890,1.5,10.55,1111122 
ENP,ioos.station.NOAA.NDBC:BDVF1:1,2019-04-01T20:00:00Z,25.4780,-80.9890,1.5,10.23,1111122 
ENP,ioos.station.NOAA.NDBC:BDVF1:1,2019-04-01T21:00:00Z,25.4780,-80.9890,1.5,10.04,1111122 
ENP,ioos.station.NOAA.NDBC:BDVF1:1,2019-04-01T22:00:00Z,25.4780,-80.9890,1.5,10.16,1111122 
ENP,ioos.station.NOAA.NDBC:BDVF1:1,2019-04-01T23:00:00Z,25.4780,-80.9890,1.5,10.55,1111122 
ENP,ioos.station.NOAA.NDBC:BDVF1:1,2019-04-02T00:00:00Z,25.4780,-80.9890,1.5,10.29,1111122 
ENP,ioos.station.NOAA.NDBC:BDVF1:1,2019-04-02T01:00:00Z,25.4780,-80.9890,1.5,10.23,1111122 
ENP,ioos.station.NOAA.NDBC:BDVF1:1,2019-04-02T03:00:00Z,25.4780,-80.9890,1.5,10.2,11111222 
ENP,ioos.station.NOAA.NDBC:BDVF1:1,2019-04-02T04:00:00Z,25.4780,-80.9890,1.5,10.23,1111122 
ENP,ioos.station.NOAA.NDBC:BDVF1:1,2019-04-02T05:00:00Z,25.4780,-80.9890,1.5,10.2,11111222 
ENP,ioos.station.NOAA.NDBC:BDVF1:1,2019-04-02T06:00:00Z,25.4780,-80.9890,1.5,10.29,1111122 
ENP,ioos.station.NOAA.NDBC:BDVF1:1,2019-04-02T07:00:00Z,25.4780,-80.9890,1.5,10.36,1111122 
ENP,ioos.station.NOAA.NDBC:BDVF1:1,2019-04-02T08:00:00Z,25.4780,-80.9890,1.5,10.55,1111122 
ENP,ioos.station.NOAA.NDBC:BDVF1:1,2019-04-02T09:00:00Z,25.4780,-80.9890,1.5,11.06,1111122 
ENP,ioos.station.NOAA.NDBC:BDVF1:1,2019-04-02T10:00:00Z,25.4780,-80.9890,1.5,11.65,1111122 
ENP,ioos.station.NOAA.NDBC:BDVF1:1,2019-04-02T11:00:00Z,25.4780,-80.9890,1.5,12.04,1111122 
ENP,ioos.station.NOAA.NDBC:BDVF1:1,2019-04-02T12:00:00Z,25.4780,-80.9890,1.5,12.43,1111122 
ENP,ioos.station.NOAA.NDBC:BDVF1:1,2019-04-02T13:00:00Z,25.4780,-80.9890,1.5,12.56,1111122 
ENP,ioos.station.NOAA.NDBC:BDVF1:1,2019-04-02T14:00:00Z,25.4780,-80.9890,1.5,12.62,1111122 
ENP,ioos.station.NOAA.NDBC:BDVF1:1,2019-04-02T15:00:00Z,25.4780,-80.9890,1.5,12.62,1111122 
ENP,ioos.station.NOAA.NDBC:BDVF1:1,2019-04-02T16:00:00Z,25.4780,-80.9890,1.5,12.23,1111122 
ENP,ioos.station.NOAA.NDBC:BDVF1:1,2019-04-02T17:00:00Z,25.4780,-80.9890,1.5,11.6,11111222 
ENP,ioos.station.NOAA.NDBC:BDVF1:1,2019-04-02T18:00:00Z,25.4780,-80.9890,1.5,11.84,1111122 
ENP,ioos.station.NOAA.NDBC:BDVF1:1,2019-04-02T19:00:00Z,25.4780,-80.9890,1.5,11.26,1111122 
ENP,ioos.station.NOAA.NDBC:BDVF1:1,2019-04-02T20:00:00Z,25.4780,-80.9890,1.5,10.94,1111122 
ENP,ioos.station.NOAA.NDBC:BDVF1:1,2019-04-02T21:00:00Z,25.4780,-80.9890,1.5,10.94,1111122 
ENP,ioos.station.NOAA.NDBC:BDVF1:1,2019-04-02T22:00:00Z,25.4780,-80.9890,1.5,11.3,11111222 
ENP,ioos.station.NOAA.NDBC:BDVF1:1,2019-04-02T23:00:00Z,25.4780,-80.9890,1.5,12.1,1111122 
ENP,ioos.station.NOAA.NDBC:BDVF1:1,2019-04-03T00:00:00Z,25.4780,-80.9890,1.5,11.97,1111122 
ENP,ioos.station.NOAA.NDBC:BDVF1:1,2019-04-03T01:00:00Z,25.4780,-80.9890,1.5,11.6,11111222 
ENP,ioos.station.NOAA.NDBC:BDVF1:1,2019-04-03T02:00:00Z,25.4780,-80.9890,1.5,11.58,1111122 
ENP,ioos.station.NOAA.NDBC:BDVF1:1,2019-04-03T03:00:00Z,25.4780,-80.9890,1.5,11.6,11111222 
ENP,ioos.station.NOAA.NDBC:BDVF1:1,2019-04-03T04:00:00Z,25.4780,-80.9890,1.5,11.78,1111122 
ENP,ioos.station.NOAA.NDBC:BDVF1:1,2019-04-03T05:00:00Z,25.4780,-80.9890,1.5,11.8,11111222 
ENP,ioos.station.NOAA.NDBC:BDVF1:1,2019-04-03T06:00:00Z,25.4780,-80.9890,1.5,11.97,1111122 
ENP,ioos.station.NOAA.NDBC:BDVF1:1,2019-04-03T07:00:00Z,25.4780,-80.9890,1.5,12.17,1111122 
ENP,ioos.station.NOAA.NDBC:BDVF1:1,2019-04-03T08:00:00Z,25.4780,-80.9890,1.5,12.43,1111122 
ENP,ioos.station.NOAA.NDBC:BDVF1:1,2019-04-03T09:00:00Z,25.4780,-80.9890,1.5,12.82,1111122 
ENP,ioos.station.NOAA.NDBC:BDVF1:1,2019-04-03T10:00:00Z,25.4780,-80.9890,1.5,13.21,1111122 
ENP,ioos.station.NOAA.NDBC:BDVF1:1,2019-04-03T11:00:00Z,25.4780,-80.9890,1.5,13.54,1111122 
ENP,ioos.station.NOAA.NDBC:BDVF1:1,2019-04-03T12:00:00Z,25.4780,-80.9890,1.5,13.87,1111122 
ENP,ioos.station.NOAA.NDBC:BDVF1:1,2019-04-03T13:00:00Z,25.4780,-80.9890,1.5,14.07,1111122 
ENP,ioos.station.NOAA.NDBC:BDVF1:1,2019-04-03T14:00:00Z,25.4780,-80.9890,1.5,14.13,1111122 
ENP,ioos.station.NOAA.NDBC:BDVF1:1,2019-04-03T15:00:00Z,25.4780,-80.9890,1.5,14.07,1111122 
ENP,ioos.station.NOAA.NDBC:BDVF1:1,2019-04-03T16:00:00Z,25.4780,-80.9890,1.5,13.87,1111122 
ENP,ioos.station.NOAA.NDBC:BDVF1:1,2019-04-03T17:00:00Z,25.4780,-80.9890,1.5,13.7,11111222 
ENP,ioos.station.NOAA.NDBC:BDVF1:1,2019-04-03T18:00:00Z,25.4780,-80.9890,1.5,13.67,1111122 
ENP,ioos.station.NOAA.NDBC:BDVF1:1,2019-04-03T19:00:00Z,25.4780,-80.9890,1.5,12.82,1111122 
ENP,ioos.station.NOAA.NDBC:BDVF1:1,2019-04-03T20:00:00Z,25.4780,-80.9890,1.5,12.43,1111122 
ENP,ioos.station.NOAA.NDBC:BDVF1:1,2019-04-03T21:00:00Z,25.4780,-80.9890,1.5,12.62,1111122 
ENP,ioos.station.NOAA.NDBC:BDVF1:1,2019-04-03T22:00:00Z,25.4780,-80.9890,1.5,12.69,1111122 
ENP,ioos.station.NOAA.NDBC:BDVF1:1,2019-04-03T23:00:00Z,25.4780,-80.9890,1.5,12.69,1111122 
ENP,ioos.station.NOAA.NDBC:BDVF1:1,2019-04-04T00:00:00Z,25.4780,-80.9890,1.5,12.69,1111122 
ENP,ioos.station.NOAA.NDBC:BDVF1:1,2019-04-04T01:00:00Z,25.4780,-80.9890,1.5,12.69,1111122 
ENP,ioos.station.NOAA.NDBC:BDVF1:1,2019-04-04T02:00:00Z,25.4780,-80.9890,1.5,12.69,1111122 
ENP,ioos.station.NOAA.NDBC:BDVF1:1,2019-04-04T03:00:00Z,25.4780,-80.9890,1.5,12.7,11111222 
ENP,ioos.station.NOAA.NDBC:BDVF1:1,2019-04-04T04:00:00Z,25.4780,-80.9890,1.5,12.69,1111122 
ENP,ioos.station.NOAA.NDBC:BDVF1:1,2019-04-04T05:00:00Z,25.4780,-80.9890,1.5,12.69,1111122 
ENP,ioos.station.NOAA.NDBC:BDVF1:1,2019-04-04T06:00:00Z,25.4780,-80.9890,1.5,11.84,1111122 
ENP,ioos.station.NOAA.NDBC:BDVF1:1,2019-04-04T07:00:00Z,25.4780,-80.9890,1.5,11.52,1111122 
ENP,ioos.station.NOAA.NDBC:BDVF1:1,2019-04-04T08:00:00Z,25.4780,-80.9890,1.5,11.32,1111122 
ENP,ioos.station.NOAA.NDBC:BDVF1:1,2019-04-04T09:00:00Z,25.4780,-80.9890,1.5,11.65,1111122 
ENP,ioos.station.NOAA.NDBC:BDVF1:1,2019-04-04T10:00:00Z,25.4780,-80.9890,1.5,11.65,1111122 
ENP,ioos.station.NOAA.NDBC:BDVF1:1,2019-04-04T11:00:00Z,25.4780,-80.9890,1.5,12.17,1111122 
ENP,ioos.station.NOAA.NDBC:BDVF1:1,2019-04-04T12:00:00Z,25.4780,-80.9890,1.5,12.17,1111122 
ENP,ioos.station.NOAA.NDBC:BDVF1:1,2019-04-04T13:00:00Z,25.4780,-80.9890,1.5,12.36,1111122 
ENP,ioos.station.NOAA.NDBC:BDVF1:1,2019-04-04T14:00:00Z,25.4780,-80.9890,1.5,12.36,1111122 
ENP,ioos.station.NOAA.NDBC:BDVF1:1,2019-04-04T15:00:00Z,25.4780,-80.9890,1.5,11.65,1111122 
ENP,ioos.station.NOAA.NDBC:BDVF1:1,2019-04-04T16:00:00Z,25.4780,-80.9890,1.5,11.13,1111122 
ENP,ioos.station.NOAA.NDBC:BDVF1:1,2019-04-04T17:00:00Z,25.4780,-80.9890,1.5,11.0,11111222 
ENP,ioos.station.NOAA.NDBC:BDVF1:1,2019-04-04T18:00:00Z,25.4780,-80.9890,1.5,10.94,1111122 
ENP,ioos.station.NOAA.NDBC:BDVF1:1,2019-04-04T19:00:00Z,25.4780,-80.9890,1.5,10.87,1111122 
ENP,ioos.station.NOAA.NDBC:BDVF1:1,2019-04-04T20:00:00Z,25.4780,-80.9890,1.5,10.81,1111122 
ENP,ioos.station.NOAA.NDBC:BDVF1:1,2019-04-04T21:00:00Z,25.4780,-80.9890,1.5,10.81,1111122 
ENP,ioos.station.NOAA.NDBC:BDVF1:1,2019-04-04T22:00:00Z,25.4780,-80.9890,1.5,10.74,1111122 
ENP,ioos.station.NOAA.NDBC:BDVF1:1,2019-04-04T23:00:00Z,25.4780,-80.9890,1.5,10.74,1111122 
ENP,ioos.station.NOAA.NDBC:BDVF1:1,2019-04-05T00:00:00Z,25.4780,-80.9890,1.5,10.68,1111122 
ENP,ioos.station.NOAA.NDBC:BDVF1:1,2019-04-05T01:00:00Z,25.4780,-80.9890,1.5,10.68,1111122 
ENP,ioos.station.NOAA.NDBC:BDVF1:1,2019-04-05T02:00:00Z,25.4780,-80.9890,1.5,10.68,1111122 
ENP,ioos.station.NOAA.NDBC:BDVF1:1,2019-04-05T03:00:00Z,25.4780,-80.9890,1.5,10.7,11111222 
ENP,ioos.station.NOAA.NDBC:BDVF1:1,2019-04-05T04:00:00Z,25.4780,-80.9890,1.5,10.68,1111122 
ENP,ioos.station.NOAA.NDBC:BDVF1:1,2019-04-05T05:00:00Z,25.4780,-80.9890,1.5,10.6,11111222 
ENP,ioos.station.NOAA.NDBC:BDVF1:1,2019-04-05T06:00:00Z,25.4780,-80.9890,1.5,10.48,1111122 
ENP,ioos.station.NOAA.NDBC:BDVF1:1,2019-04-05T07:00:00Z,25.4780,-80.9890,1.5,10.55,1111122 
ENP,ioos.station.NOAA.NDBC:BDVF1:1,2019-04-05T08:00:00Z,25.4780,-80.9890,1.5,10.61,1111122 
ENP,ioos.station.NOAA.NDBC:BDVF1:1,2019-04-05T09:00:00Z,25.4780,-80.9890,1.5,10.55,1111122 
ENP,ioos.station.NOAA.NDBC:BDVF1:1,2019-04-05T10:00:00Z,25.4780,-80.9890,1.5,10.42,1111122 
ENP,ioos.station.NOAA.NDBC:BDVF1:1,2019-04-05T11:00:00Z,25.4780,-80.9890,1.5,10.29,1111122 
ENP,ioos.station.NOAA.NDBC:BDVF1:1,2019-04-05T12:00:00Z,25.4780,-80.9890,1.5,10.29,1111122 
ENP,ioos.station.NOAA.NDBC:BDVF1:1,2019-04-05T13:00:00Z,25.4780,-80.9890,1.5,10.42,1111122 
ENP,ioos.station.NOAA.NDBC:BDVF1:1,2019-04-05T14:00:00Z,25.4780,-80.9890,1.5,10.42,1111122 
ENP,ioos.station.NOAA.NDBC:BDVF1:1,2019-04-05T15:00:00Z,25.4780,-80.9890,1.5,10.42,1111122 
ENP,ioos.station.NOAA.NDBC:BDVF1:1,2019-04-05T16:00:00Z,25.4780,-80.9890,1.5,10.36,1111122 
ENP,ioos.station.NOAA.NDBC:BDVF1:1,2019-04-05T17:00:00Z,25.4780,-80.9890,1.5,10.42,1111122 
ENP,ioos.station.NOAA.NDBC:BDVF1:1,2019-04-05T18:00:00Z,25.4780,-80.9890,1.5,10.29,1111122 
ENP,ioos.station.NOAA.NDBC:BDVF1:1,2019-04-05T19:00:00Z,25.4780,-80.9890,1.5,10.23,1111122 
ENP,ioos.station.NOAA.NDBC:BDVF1:1,2019-04-05T20:00:00Z,25.4780,-80.9890,1.5,10.16,1111122 
ENP,ioos.station.NOAA.NDBC:BDVF1:1,2019-04-05T21:00:00Z,25.4780,-80.9890,1.5,10.16,1111122 
ENP,ioos.station.NOAA.NDBC:BDVF1:1,2019-04-05T22:00:00Z,25.4780,-80.9890,1.5,10.1,1111122 
ENP,ioos.station.NOAA.NDBC:BDVF1:1,2019-04-05T23:00:00Z,25.4780,-80.9890,1.5,10.04,1111122 
ENP,ioos.station.NOAA.NDBC:BDVF1:1,2019-04-06T00:00:00Z,25.4780,-80.9890,1.5,10.1,1111122 
ENP,ioos.station.NOAA.NDBC:BDVF1:1,2019-04-06T01:00:00Z,25.4780,-80.9890,1.5,10.16,1111122 
ENP,ioos.station.NOAA.NDBC:BDVF1:1,2019-04-06T02:00:00Z,25.4780,-80.9890,1.5,10.23,1111122 
ENP,ioos.station.NOAA.NDBC:BDVF1:1,2019-04-06T03:00:00Z,25.4780,-80.9890,1.5,10.2,11111222 
ENP,ioos.station.NOAA.NDBC:BDVF1:1,2019-04-06T04:00:00Z,25.4780,-80.9890,1.5,10.1,1111122 
ENP,ioos.station.NOAA.NDBC:BDVF1:1,2019-04-06T05:00:00Z,25.4780,-80.9890,1.5,10.1,11111222 
ENP,ioos.station.NOAA.NDBC:BDVF1:1,2019-04-06T06:00:00Z,25.4780,-80.9890,1.5,10.1,1111122 
ENP,ioos.station.NOAA.NDBC:BDVF1:1,2019-04-06T07:00:00Z,25.4780,-80.9890,1.5,10.1,1111122 
ENP,ioos.station.NOAA.NDBC:BDVF1:1,2019-04-06T08:00:00Z,25.4780,-80.9890,1.5,10.1,1111122 
ENP,ioos.station.NOAA.NDBC:BDVF1:1,2019-04-06T09:00:00Z,25.4780,-80.9890,1.5,10.1,1111122 
ENP,ioos.station.NOAA.NDBC:BDVF1:1,2019-04-06T10:00:00Z,25.4780,-80.9890,1.5,10.1,1111122 
ENP,ioos.station.NOAA.NDBC:BDVF1:1,2019-04-06T11:00:00Z,25.4780,-80.9890,1.5,10.16,1111122 
ENP,ioos.station.NOAA.NDBC:BDVF1:1,2019-04-06T12:00:00Z,25.4780,-80.9890,1.5,10.16,1111122 
ENP,ioos.station.NOAA.NDBC:BDVF1:1,2019-04-06T13:00:00Z,25.4780,-80.9890,1.5,10.16,1111122 
ENP,ioos.station.NOAA.NDBC:BDVF1:1,2019-04-06T14:00:00Z,25.4780,-80.9890,1.5,10.16,1111122 
ENP,ioos.station.NOAA.NDBC:BDVF1:1,2019-04-06T15:00:00Z,25.4780,-80.9890,1.5,10.16,1111122 
ENP,ioos.station.NOAA.NDBC:BDVF1:1,2019-04-06T16:00:00Z,25.4780,-80.9890,1.5,10.55,1111122 
ENP,ioos.station.NOAA.NDBC:BDVF1:1,2019-04-06T17:00:00Z,25.4780,-80.9890,1.5,10.7,11111222 
ENP,ioos.station.NOAA.NDBC:BDVF1:1,2019-04-06T18:00:00Z,25.4780,-80.9890,1.5,10.48,1111122 
ENP,ioos.station.NOAA.NDBC:BDVF1:1,2019-04-06T19:00:00Z,25.4780,-80.9890,1.5,10.36,1111122 
ENP,ioos.station.NOAA.NDBC:BDVF1:1,2019-04-06T20:00:00Z,25.4780,-80.9890,1.5,10.55,1111122 
ENP,ioos.station.NOAA.NDBC:BDVF1:1,2019-04-06T21:00:00Z,25.4780,-80.9890,1.5,10.74,1111122 
ENP,ioos.station.NOAA.NDBC:BDVF1:1,2019-04-06T22:00:00Z,25.4780,-80.9890,1.5,10.74,1111122 
ENP,ioos.station.NOAA.NDBC:BDVF1:1,2019-04-06T23:00:00Z,25.4780,-80.9890,1.5,10.74,1111122 
ENP,ioos.station.NOAA.NDBC:BDVF1:1,2019-04-07T00:00:00Z,25.4780,-80.9890,1.5,10.68,1111122 
ENP,ioos.station.NOAA.NDBC:BDVF1:1,2019-04-07T01:00:00Z,25.4780,-80.9890,1.5,10.61,1111122 
ENP,ioos.station.NOAA.NDBC:BDVF1:1,2019-04-07T02:00:00Z,25.4780,-80.9890,1.5,10.61,1111122 
ENP,ioos.station.NOAA.NDBC:BDVF1:1,2019-04-07T03:00:00Z,25.4780,-80.9890,1.5,10.68,1111122 
ENP,ioos.station.NOAA.NDBC:BDVF1:1,2019-04-18T19:00:00Z,25.4780,-80.9890,1.5,8.58,11111222 
ENP,ioos.station.NOAA.NDBC:BDVF1:1,2019-04-18T20:00:00Z,25.4780,-80.9890,1.5,8.14,11111222 
ENP,ioos.station.NOAA.NDBC:BDVF1:1,2019-04-18T21:00:00Z,25.4780,-80.9890,1.5,8.7,11111222 
ENP,ioos.station.NOAA.NDBC:BDVF1:1,2019-04-18T22:00:00Z,25.4780,-80.9890,1.5,8.7,11111222 
ENP,ioos.station.NOAA.NDBC:BDVF1:1,2019-04-18T23:00:00Z,25.4780,-80.9890,1.5,8.64,11111222 
ENP,ioos.station.NOAA.NDBC:BDVF1:1,2019-04-19T00:00:00Z,25.4780,-80.9890,1.5,8.7,11111222 
ENP,ioos.station.NOAA.NDBC:BDVF1:1,2019-04-19T01:00:00Z,25.4780,-80.9890,1.5,8.7,11111222 
ENP,ioos.station.NOAA.NDBC:BDVF1:1,2019-04-19T02:00:00Z,25.4780,-80.9890,1.5,8.77,11111222 
ENP,ioos.station.NOAA.NDBC:BDVF1:1,2019-04-19T03:00:00Z,25.4780,-80.9890,1.5,8.7,11111222 
ENP,ioos.station.NOAA.NDBC:BDVF1:1,2019-04-19T04:00:00Z,25.4780,-80.9890,1.5,8.7,11111222 
ENP,ioos.station.NOAA.NDBC:BDVF1:1,2019-04-19T05:00:00Z,25.4780,-80.9890,1.5,8.64,11111222 
ENP,ioos.station.NOAA.NDBC:BDVF1:1,2019-04-19T09:00:00Z,25.4780,-80.9890,1.5,8.64,11111222 
ENP,ioos.station.NOAA.NDBC:BDVF1:1,2019-04-19T10:00:00Z,25.4780,-80.9890,1.5,8.64,11111222 
ENP,ioos.station.NOAA.NDBC:BDVF1:1,2019-04-19T11:00:00Z,25.4780,-80.9890,1.5,8.7,11111222 
ENP,ioos.station.NOAA.NDBC:BDVF1:1,2019-04-19T12:00:00Z,25.4780,-80.9890,1.5,8.7,11111222 
ENP,ioos.station.NOAA.NDBC:BDVF1:1,2019-04-19T13:00:00Z,25.4780,-80.9890,1.5,8.64,11111222 
ENP,ioos.station.NOAA.NDBC:BDVF1:1,2019-04-19T14:00:00Z,25.4780,-80.9890,1.5,8.7,11111222 
ENP,ioos.station.NOAA.NDBC:BDVF1:1,2019-04-19T15:00:00Z,25.4780,-80.9890,1.5,8.64,11111222 
ENP,ioos.station.NOAA.NDBC:BDVF1:1,2019-04-19T16:00:00Z,25.4780,-80.9890,1.5,8.58,11111222 
ENP,ioos.station.NOAA.NDBC:BDVF1:1,2019-04-19T17:00:00Z,25.4780,-80.9890,1.5,8.58,11111222 
ENP,ioos.station.NOAA.NDBC:BDVF1:1,2019-04-19T18:00:00Z,25.4780,-80.9890,1.5,8.58,11111222 
ENP,ioos.station.NOAA.NDBC:BDVF1:1,2019-04-19T19:00:00Z,25.4780,-80.9890,1.5,8.64,11111222 
ENP,ioos.station.NOAA.NDBC:BDVF1:1,2019-04-19T20:00:00Z,25.4780,-80.9890,1.5,8.83,11111222 
ENP,ioos.station.NOAA.NDBC:BDVF1:1,2019-04-19T21:00:00Z,25.4780,-80.9890,1.5,8.96,11111222 
ENP,ioos.station.NOAA.NDBC:BDVF1:1,2019-04-19T22:00:00Z,25.4780,-80.9890,1.5,9.21,11111222 
ENP,ioos.station.NOAA.NDBC:BDVF1:1,2019-04-19T23:00:00Z,25.4780,-80.9890,1.5,9.78,11111222 
ENP,ioos.station.NOAA.NDBC:BDVF1:1,2019-04-20T00:00:00Z,25.4780,-80.9890,1.5,10.68,11111222 
ENP,ioos.station.NOAA.NDBC:BDVF1:1,2019-04-20T01:00:00Z,25.4780,-80.9890,1.5,11.06,11111222 
ENP,ioos.station.NOAA.NDBC:BDVF1:1,2019-04-20T02:00:00Z,25.4780,-80.9890,1.5,11.19,11111222 
ENP,ioos.station.NOAA.NDBC:BDVF1:1,2019-04-20T03:00:00Z,25.4780,-80.9890,1.5,10.9,11111222 
ENP,ioos.station.NOAA.NDBC:BDVF1:1,2019-04-20T04:00:00Z,25.4780,-80.9890,1.5,10.81,11111222 
ENP,ioos.station.NOAA.NDBC:BDVF1:1,2019-04-20T05:00:00Z,25.4780,-80.9890,1.5,9.97,11111222 
ENP,ioos.station.NOAA.NDBC:BDVF1:1,2019-04-20T07:00:00Z,25.4780,-80.9890,1.5,11.0,11111222 
ENP,ioos.station.NOAA.NDBC:BDVF1:1,2019-04-20T08:00:00Z,25.4780,-80.9890,1.5,10.74,11111222 
ENP,ioos.station.NOAA.NDBC:BDVF1:1,2019-04-20T09:00:00Z,25.4780,-80.9890,1.5,10.61,11111222 
ENP,ioos.station.NOAA.NDBC:BDVF1:1,2019-04-20T10:00:00Z,25.4780,-80.9890,1.5,10.61,11111222 
ENP,ioos.station.NOAA.NDBC:BDVF1:1,2019-04-20T11:00:00Z,25.4780,-80.9890,1.5,10.74,11111222 
ENP,ioos.station.NOAA.NDBC:BDVF1:1,2019-04-20T12:00:00Z,25.4780,-80.9890,1.5,11.06,11111222 
ENP,ioos.station.NOAA.NDBC:BDVF1:1,2019-04-20T13:00:00Z,25.4780,-80.9890,1.5,11.52,11111222 
ENP,ioos.station.NOAA.NDBC:BDVF1:1,2019-04-20T14:00:00Z,25.4780,-80.9890,1.5,11.65,11111222 
ENP,ioos.station.NOAA.NDBC:BDVF1:1,2019-04-20T15:00:00Z,25.4780,-80.9890,1.5,10.42,11111222 
ENP,ioos.station.NOAA.NDBC:BDVF1:1,2019-04-20T16:00:00Z,25.4780,-80.9890,1.5,9.97,11111222 
ENP,ioos.station.NOAA.NDBC:BDVF1:1,2019-04-20T17:00:00Z,25.4780,-80.9890,1.5,9.78,11111222 
ENP,ioos.station.NOAA.NDBC:BDVF1:1,2019-04-20T18:00:00Z,25.4780,-80.9890,1.5,9.91,11111222 
ENP,ioos.station.NOAA.NDBC:BDVF1:1,2019-04-20T19:00:00Z,25.4780,-80.9890,1.5,10.04,11111222 
ENP,ioos.station.NOAA.NDBC:BDVF1:1,2019-04-20T20:00:00Z,25.4780,-80.9890,1.5,10.42,11111222 
ENP,ioos.station.NOAA.NDBC:BDVF1:1,2019-04-20T21:00:00Z,25.4780,-80.9890,1.5,10.74,11111222 
ENP,ioos.station.NOAA.NDBC:BDVF1:1,2019-04-20T22:00:00Z,25.4780,-80.9890,1.5,11.39,11111222 
ENP,ioos.station.NOAA.NDBC:BDVF1:1,2019-04-20T23:00:00Z,25.4780,-80.9890,1.5,11.71,11111222 
ENP,ioos.station.NOAA.NDBC:BDVF1:1,2019-04-21T00:00:00Z,25.4780,-80.9890,1.5,11.84,11111222 
ENP,ioos.station.NOAA.NDBC:BDVF1:1,2019-04-21T01:00:00Z,25.4780,-80.9890,1.5,12.56,11111222 
ENP,ioos.station.NOAA.NDBC:BDVF1:1,2019-04-21T02:00:00Z,25.4780,-80.9890,1.5,12.49,11111222 
ENP,ioos.station.NOAA.NDBC:BDVF1:1,2019-04-21T03:00:00Z,25.4780,-80.9890,1.5,12.6,11111222 
ENP,ioos.station.NOAA.NDBC:BDVF1:1,2019-04-21T04:00:00Z,25.4780,-80.9890,1.5,12.3,11111222 
ENP,ioos.station.NOAA.NDBC:BDVF1:1,2019-04-21T05:00:00Z,25.4780,-80.9890,1.5,12.49,11111222 
ENP,ioos.station.NOAA.NDBC:BDVF1:1,2019-04-21T07:00:00Z,25.4780,-80.9890,1.5,12.1,11111222 
ENP,ioos.station.NOAA.NDBC:BDVF1:1,2019-04-21T08:00:00Z,25.4780,-80.9890,1.5,12.1,11111222 
ENP,ioos.station.NOAA.NDBC:BDVF1:1,2019-04-21T09:00:00Z,25.4780,-80.9890,1.5,12.75,11111222 
ENP,ioos.station.NOAA.NDBC:BDVF1:1,2019-04-21T10:00:00Z,25.4780,-80.9890,1.5,12.17,11111222 
ENP,ioos.station.NOAA.NDBC:BDVF1:1,2019-04-21T11:00:00Z,25.4780,-80.9890,1.5,12.04,11111222 
ENP,ioos.station.NOAA.NDBC:BDVF1:1,2019-04-21T12:00:00Z,25.4780,-80.9890,1.5,11.91,11111222 
ENP,ioos.station.NOAA.NDBC:BDVF1:1,2019-04-21T13:00:00Z,25.4780,-80.9890,1.5,12.04,11111222 
ENP,ioos.station.NOAA.NDBC:BDVF1:1,2019-04-21T14:00:00Z,25.4780,-80.9890,1.5,11.97,11111222 
ENP,ioos.station.NOAA.NDBC:BDVF1:1,2019-04-21T15:00:00Z,25.4780,-80.9890,1.5,11.97,11111222 
ENP,ioos.station.NOAA.NDBC:BDVF1:1,2019-04-21T16:00:00Z,25.4780,-80.9890,1.5,12.04,11111222 
ENP,ioos.station.NOAA.NDBC:BDVF1:1,2019-04-21T17:00:00Z,25.4780,-80.9890,1.5,11.84,11111222 
ENP,ioos.station.NOAA.NDBC:BDVF1:1,2019-04-21T18:00:00Z,25.4780,-80.9890,1.5,11.71,11111222 
ENP,ioos.station.NOAA.NDBC:BDVF1:1,2019-04-21T19:00:00Z,25.4780,-80.9890,1.5,11.65,11111222 
ENP,ioos.station.NOAA.NDBC:BDVF1:1,2019-04-21T20:00:00Z,25.4780,-80.9890,1.5,11.78,11111222 
ENP,ioos.station.NOAA.NDBC:BDVF1:1,2019-04-21T21:00:00Z,25.4780,-80.9890,1.5,11.19,11111222 
ENP,ioos.station.NOAA.NDBC:BDVF1:1,2019-04-21T22:00:00Z,25.4780,-80.9890,1.5,11.13,11111222 
ENP,ioos.station.NOAA.NDBC:BDVF1:1,2019-04-21T23:00:00Z,25.4780,-80.9890,1.5,11.19,11111222 
ENP,ioos.station.NOAA.NDBC:BDVF1:1,2019-04-22T00:00:00Z,25.4780,-80.9890,1.5,11.19,11111222 
ENP,ioos.station.NOAA.NDBC:BDVF1:1,2019-04-22T01:00:00Z,25.4780,-80.9890,1.5,11.13,11111222 
ENP,ioos.station.NOAA.NDBC:BDVF1:1,2019-04-22T02:00:00Z,25.4780,-80.9890,1.5,11.52,11111222 
ENP,ioos.station.NOAA.NDBC:BDVF1:1,2019-04-22T03:00:00Z,25.4780,-80.9890,1.5,11.6,11111222 
ENP,ioos.station.NOAA.NDBC:BDVF1:1,2019-04-22T04:00:00Z,25.4780,-80.9890,1.5,11.13,11111222 
ENP,ioos.station.NOAA.NDBC:BDVF1:1,2019-04-22T05:00:00Z,25.4780,-80.9890,1.5,11.0,11111222 
ENP,ioos.station.NOAA.NDBC:BDVF1:1,2019-04-22T07:00:00Z,25.4780,-80.9890,1.5,10.4,11111222 
ENP,ioos.station.NOAA.NDBC:BDVF1:1,2019-04-22T08:00:00Z,25.4780,-80.9890,1.5,10.87,11111222 
ENP,ioos.station.NOAA.NDBC:BDVF1:1,2019-04-22T09:00:00Z,25.4780,-80.9890,1.5,10.81,11111222 
ENP,ioos.station.NOAA.NDBC:BDVF1:1,2019-04-22T10:00:00Z,25.4780,-80.9890,1.5,10.87,11111222 
ENP,ioos.station.NOAA.NDBC:BDVF1:1,2019-04-22T11:00:00Z,25.4780,-80.9890,1.5,11.0,11111222 
ENP,ioos.station.NOAA.NDBC:BDVF1:1,2019-04-22T12:00:00Z,25.4780,-80.9890,1.5,10.94,11111222 
ENP,ioos.station.NOAA.NDBC:BDVF1:1,2019-04-22T13:00:00Z,25.4780,-80.9890,1.5,11.0,11111222 
ENP,ioos.station.NOAA.NDBC:BDVF1:1,2019-04-22T14:00:00Z,25.4780,-80.9890,1.5,10.42,11111222 
ENP,ioos.station.NOAA.NDBC:BDVF1:1,2019-04-22T15:00:00Z,25.4780,-80.9890,1.5,10.48,11111222 
ENP,ioos.station.NOAA.NDBC:BDVF1:1,2019-04-22T16:00:00Z,25.4780,-80.9890,1.5,10.81,11111222 
ENP,ioos.station.NOAA.NDBC:BDVF1:1,2019-04-22T17:00:00Z,25.4780,-80.9890,1.5,10.68,11111222 
ENP,ioos.station.NOAA.NDBC:BDVF1:1,2019-04-22T18:00:00Z,25.4780,-80.9890,1.5,10.61,11111222 
ENP,ioos.station.NOAA.NDBC:BDVF1:1,2019-04-22T19:00:00Z,25.4780,-80.9890,1.5,10.42,11111222 
ENP,ioos.station.NOAA.NDBC:BDVF1:1,2019-04-22T20:00:00Z,25.4780,-80.9890,1.5,10.29,11111222 
ENP,ioos.station.NOAA.NDBC:BDVF1:1,2019-04-22T21:00:00Z,25.4780,-80.9890,1.5,10.16,11111222 
ENP,ioos.station.NOAA.NDBC:BDVF1:1,2019-04-22T22:00:00Z,25.4780,-80.9890,1.5,10.1,11111222 
ENP,ioos.station.NOAA.NDBC:BDVF1:1,2019-04-22T23:00:00Z,25.4780,-80.9890,1.5,10.1,11111222 
ENP,ioos.station.NOAA.NDBC:BDVF1:1,2019-04-23T00:00:00Z,25.4780,-80.9890,1.5,10.1,11111222 
ENP,ioos.station.NOAA.NDBC:BDVF1:1,2019-04-23T01:00:00Z,25.4780,-80.9890,1.5,10.16,11111222 
ENP,ioos.station.NOAA.NDBC:BDVF1:1,2019-04-23T02:00:00Z,25.4780,-80.9890,1.5,10.16,11111222 
ENP,ioos.station.NOAA.NDBC:BDVF1:1,2019-04-23T03:00:00Z,25.4780,-80.9890,1.5,10.2,11111222 
ENP,ioos.station.NOAA.NDBC:BDVF1:1,2019-04-23T04:00:00Z,25.4780,-80.9890,1.5,10.16,11111222 
ENP,ioos.station.NOAA.NDBC:BDVF1:1,2019-04-23T05:00:00Z,25.4780,-80.9890,1.5,10.16,11111222 
ENP,ioos.station.NOAA.NDBC:BDVF1:1,2019-04-23T07:00:00Z,25.4780,-80.9890,1.5,9.9,11111222 
ENP,ioos.station.NOAA.NDBC:BDVF1:1,2019-04-23T08:00:00Z,25.4780,-80.9890,1.5,9.84,11111222 
ENP,ioos.station.NOAA.NDBC:BDVF1:1,2019-04-23T09:00:00Z,25.4780,-80.9890,1.5,9.97,11111222 
ENP,ioos.station.NOAA.NDBC:BDVF1:1,2019-04-23T10:00:00Z,25.4780,-80.9890,1.5,9.97,11111222 
ENP,ioos.station.NOAA.NDBC:BDVF1:1,2019-04-23T11:00:00Z,25.4780,-80.9890,1.5,9.97,11111222 
ENP,ioos.station.NOAA.NDBC:BDVF1:1,2019-04-23T12:00:00Z,25.4780,-80.9890,1.5,9.97,11111222 
ENP,ioos.station.NOAA.NDBC:BDVF1:1,2019-04-23T13:00:00Z,25.4780,-80.9890,1.5,9.97,11111222 
ENP,ioos.station.NOAA.NDBC:BDVF1:1,2019-04-23T14:00:00Z,25.4780,-80.9890,1.5,9.91,11111222 
ENP,ioos.station.NOAA.NDBC:BDVF1:1,2019-04-23T15:00:00Z,25.4780,-80.9890,1.5,9.78,11111222 
ENP,ioos.station.NOAA.NDBC:BDVF1:1,2019-04-23T16:00:00Z,25.4780,-80.9890,1.5,9.78,11111222 
ENP,ioos.station.NOAA.NDBC:BDVF1:1,2019-04-23T17:00:00Z,25.4780,-80.9890,1.5,9.65,11111222 